Temp
19 21 22 20 18 16 19 21 19 21 22 20 19 20 18 16 18 18 17 17 17 17 17 17 17 17 17 17 17 17 18 18 18 18 18 18 18 18 17 17 17 17 17 17 17 17 17 17 16
19 21 21 14 17 18 18 19 21 21 21 17 18 18 16 16 16 16 16 17 16 16 16 16 17 17 17 17 17 17 17 17 17 17 17 17 17 17 17 16 17 17 17 17 18 16 17 16 17
19 20 17 15 14 18 18 20 20 20 19 20 17 15 15 15 15 15 16 16 16 16 16 16 16 16 16 17 16 17 17 17 17 17 17 17 17 17 17 16 16 17 17 17 17 16 17 17 16
19 17 14 17 19 19 19 19 19 20 20 17 16 15 14 15 15 16 15 15 16 15 15 15 15 16 16 16 14 15 16 16 16 16 16 16 17 17 17 17 16 17 16 17 16 16 17 16 16
18 14 16 17 18 19 18 19 19 19 18 17 17 15 14 15 15 15 15 15 15 14 14 14 14 14 15 15 14 13 13 14 15 16 16 16 17 17 17 17 16 16 16 16 16 16 16 16 15
16 14 17 17 18 19 18 18 18 17 17 17 15 13 13 15 15 15 15 14 14 13 13 13 13 13 13 13 13 13 13 13 13 15 15 15 16 16 16 17 16 16 16 16 16 16 16 15 15
16 15 17 18 18 19 18 18 18 17 17 17 14 14 14 14 14 14 14 13 13 13 13 12 12 12 12 12 12 12 12 13 12 11 12 13 15 15 16 16 16 16 16 16 16 16 15 15 14
13 15 19 18 18 19 18 18 17 16 17 16 16 14 14 14 14 14 13 13 12 12 12 11 11 11 11 11 11 11 11 11 12 12 12 13 14 15 16 16 16 16 16 16 16 16 15 15 14
15 16 16 19 18 19 17 17 17 16 16 16 15 14 14 14 14 13 13 12 12 12 11 11 10 10 10 10 10 10 10 10 11 11 11 12 14 14 15 16 16 16 16 16 15 16 15 15 14
15 15 17 17 17 17 17 16 16 16 15 15 14 14 14 13 12 11 10 10 11 11 11 10 10 10 9 9 9 9 9 9 10 10 10 11 12 13 14 15 16 16 16 15 15 16 15 15 14
15 16 17 17 16 16 17 16 16 15 14 13 12 13 13 12 11 11 11 10 10 11 10 10 10 9 9 9 9 9 9 9 9 9 9 10 11 13 13 15 15 15 16 15 15 15 15 15 14
17 17 17 16 16 16 16 15 15 13 15 14 12 13 12 11 11 11 11 11 11 10 10 10 10 9 9 9 8 8 8 8 9 8 9 9 10 11 13 14 14 15 15 15 15 15 15 15 15
17 17 16 15 15 15 15 14 14 13 12 12 12 12 11 10 11 11 11 11 11 10 10 10 9 9 9 8 8 7 7 7 8 7 7 8 9 11 12 13 14 15 15 15 15 15 15 14 14
16 16 16 15 15 15 15 14 14 14 11 11 12 11 10 10 11 11 11 11 11 10 10 9 9 9 8 7 7 7 7 7 7 7 7 7 8 9 11 12 14 14 15 15 15 15 15 14 14
16 15 15 14 15 15 14 13 12 13 11 11 11 10 10 9 11 11 11 11 10 10 9 9 9 8 8 7 7 6 6 6 6 7 7 7 8 9 9 11 12 13 14 15 14 14 14 14 14
16 15 15 15 14 15 15 15 16 12 10 11 10 10 9 10 10 11 11 10 10 10 9 9 8 8 7 6 6 6 6 6 6 6 7 7 7 8 8 10 11 13 13 13 13 13 14 14 14
13 15 14 15 13 14 14 14 15 11 10 11 10 10 9 9 10 11 11 10 10 9 8 9 8 7 6 6 6 6 6 6 6 6 6 8 8 8 8 9 10 13 13 13 12 12 13 13 13
15 13 14 14 15 13 12 12 13 12 10 10 10 9 9 9 9 11 10 9 9 9 9 9 7 6 6 6 6 6 6 6 6 6 6 6 8 8 8 9 11 13 13 12 12 12 12 13 13
16 16 15 15 14 13 12 12 13 12 10 10 9 9 9 9 9 10 9 9 9 9 8 8 6 6 5 5 5 5 6 6 6 6 6 7 8 8 8 10 11 13 12 12 12 12 11 11 13
16 15 14 13 14 13 12 12 14 12 11 11 10 9 9 9 8 9 8 8 8 8 8 8 6 5 5 5 5 5 6 7 7 7 7 7 8 8 8 11 12 12 12 12 12 12 11 11 13
14 12 11 14 12 12 10 11 13 13 12 11 10 10 9 8 8 9 8 8 7 8 7 7 6 5 5 5 5 5 7 8 8 8 8 9 9 9 9 11 12 14 15 13 12 12 11 12 12
15 14 13 13 12 12 11 12 10 11 10 12 10 9 9 8 8 8 7 7 7 7 8 7 5 4 5 5 5 5 6 7 9 9 9 9 9 10 11 12 12 12 12 12 12 12 11 12 12
14 13 13 13 12 11 10 8 11 10 13 13 11 9 8 7 7 7 7 7 7 7 7 6 5 4 5 5 5 5 6 7 9 10 10 10 11 11 12 12 12 12 12 12 12 12 11 12 12
12 12 11 10 10 10 9 9 11 9 14 14 11 9 8 7 6 6 7 6 7 8 7 6 5 4 5 5 5 5 6 6 8 10 10 11 11 11 12 12 12 12 12 12 12 12 12 12 12
13 12 10 11 10 13 9 9 12 13 13 13 13 9 7 6 5 5 6 5 6 7 7 5 5 4 4 5 5 5 6 6 7 9 10 11 11 11 11 12 12 12 12 12 12 12 12 12 12
11 12 12 14 13 13 10 11 14 12 12 10 12 9 6 6 5 5 5 5 5 6 7 6 5 4 4 5 5 4 6 5 6 7 9 9 9 10 11 12 12 12 12 11 11 10 10 10 10
12 12 12 10 5 9 12 12 13 12 12 11 9 7 6 5 5 5 5 5 5 6 6 6 5 5 4 4 5 4 5 5 5 6 8 7 9 10 11 11 11 11 10 10 10 9 9 9 9
12 11 11 8 11 12 14 13 14 16 12 10 9 7 6 5 4 4 4 5 5 5 6 7 6 6 4 4 4 4 4 4 5 5 5 6 6 8 8 8 8 8 9 9 10 9 8 9 8
10 11 11 11 11 14 13 16 13 15 13 11 9 8 6 5 4 4 4 5 5 5 6 6 6 7 6 5 4 4 4 3 5 4 3 5 6 5 6 7 7 7 6 7 8 7 7 7 8
11 11 11 12 12 10 12 13 14 13 13 10 10 8 7 6 4 3 4 5 5 5 6 6 6 7 6 6 6 5 5 5 5 5 4 4 4 4 5 6 7 7 6 7 8 7 8 9 8
Height
778 777 777 777 805 813 809 798 792 786 784 782 780 780 788 795 795 805 796 796 796 794 792 790 787 787 785 785 784 784 784 784 783 783 783 783 784 784 784 785 785 786 788 791 793 792 792 793 794
778 776 776 792 815 821 813 796 793 788 782 784 782 785 792 799 796 797 797 796 795 793 792 790 788 787 785 784 783 782 783 783 783 783 782 782 783 783 783 783 784 786 787 788 790 790 790 790 792
777 776 785 804 824 818 812 794 791 785 784 780 788 791 796 801 798 798 798 797 795 793 791 790 788 787 784 783 781 781 780 780 780 780 780 780 780 781 781 781 782 783 785 787 788 789 789 790 792
777 779 793 806 807 798 796 791 789 788 784 784 789 798 799 798 798 798 798 797 795 793 792 790 788 786 784 781 779 777 777 776 777 777 777 777 777 776 778 779 779 779 782 785 786 787 789 791 792
779 790 807 808 805 795 793 788 788 790 790 791 789 797 801 798 799 798 798 797 794 792 791 789 788 785 783 781 778 777 775 772 771 772 773 773 773 773 775 776 777 778 778 781 784 787 788 791 793
790 795 811 812 804 795 792 788 789 793 793 792 795 800 801 799 798 797 797 796 794 792 790 788 786 784 781 779 777 775 774 772 769 768 768 769 771 771 771 771 774 776 777 779 781 784 787 790 793
791 801 808 803 799 796 791 787 790 793 794 793 794 800 800 799 798 797 796 795 793 792 789 787 785 782 779 777 775 773 771 769 767 766 764 762 764 767 769 770 770 773 777 778 779 781 785 789 792
790 798 802 799 801 795 789 789 791 795 794 791 791 799 799 796 796 796 795 793 792 790 788 785 783 780 777 774 772 771 769 767 765 763 760 760 759 760 764 766 768 771 773 777 779 780 783 787 790
785 805 812 795 798 791 790 793 791 790 793 792 791 792 793 794 795 794 793 793 791 789 787 784 782 779 776 772 770 767 766 764 762 760 758 756 756 755 757 761 763 768 771 774 777 781 783 786 789
794 810 799 793 793 793 791 794 792 793 794 794 793 792 792 794 794 794 793 792 791 788 786 783 780 777 773 770 767 764 761 759 758 757 755 753 752 752 752 754 759 763 768 772 776 780 782 786 789
794 801 794 792 792 792 793 793 791 794 796 791 793 791 791 793 793 792 792 792 790 787 784 782 779 775 771 766 763 759 757 755 753 752 751 749 749 748 748 749 754 758 765 769 773 777 781 784 787
794 791 792 792 792 793 794 793 793 793 786 783 785 787 790 792 792 791 791 790 788 786 783 780 776 772 768 764 760 756 753 750 748 748 748 745 745 744 743 744 750 751 759 765 769 774 780 783 787
792 792 793 792 793 793 793 794 794 789 784 784 786 788 789 790 790 790 789 788 787 785 781 777 773 770 765 760 756 752 749 745 743 743 743 741 741 741 740 740 734 746 754 761 766 771 777 783 786
793 793 794 793 793 793 794 793 792 779 780 784 786 787 788 789 788 788 787 786 785 783 779 775 771 766 761 756 752 748 744 741 739 738 739 738 738 738 741 740 737 743 752 760 765 771 776 781 785
794 799 797 794 793 793 794 792 788 779 781 783 785 786 787 787 787 786 786 785 784 780 776 773 768 763 759 753 748 744 740 737 736 734 734 734 734 734 737 738 742 745 751 757 764 771 776 780 785
800 803 806 791 793 792 793 789 773 776 781 783 784 785 786 785 785 785 785 784 782 779 775 771 766 760 754 750 746 740 736 733 731 730 729 729 729 731 735 735 738 742 747 754 761 766 773 778 784
809 809 805 794 793 792 795 788 773 777 781 781 782 782 783 784 784 784 783 782 780 778 774 769 763 757 751 746 741 736 731 728 726 725 726 725 726 728 730 731 730 735 744 749 758 765 769 776 784
805 809 801 800 791 794 796 785 773 774 779 776 777 779 781 782 781 782 782 781 779 775 772 767 761 755 749 743 738 732 727 724 721 720 721 721 722 725 727 728 729 732 739 749 755 759 766 775 782
792 797 797 793 791 794 792 782 765 768 772 771 773 776 778 779 779 780 781 779 776 773 769 765 759 754 748 741 736 729 725 720 718 717 716 718 719 721 723 725 727 733 742 749 754 757 766 772 780
794 797 802 796 793 794 792 777 759 761 763 760 764 771 774 777 779 780 780 778 775 771 767 763 757 752 747 742 737 732 724 717 715 714 713 714 716 718 721 722 726 731 740 745 756 761 766 771 777
798 806 810 799 798 796 802 777 760 758 759 758 761 764 768 774 777 778 778 777 774 769 765 761 756 751 746 741 734 730 722 717 713 712 711 713 714 716 718 722 726 728 734 737 750 757 762 768 777
799 796 798 798 804 811 803 804 780 765 765 756 760 763 767 771 775 777 776 775 773 768 765 761 756 751 746 741 736 731 725 718 714 712 712 712 714 715 717 720 726 731 735 740 747 753 761 767 775
795 797 798 800 808 810 810 828 777 771 757 754 759 764 769 771 773 775 775 775 772 767 764 761 756 752 747 742 738 733 726 720 715 713 714 714 715 718 717 725 729 734 739 744 749 753 759 767 772
798 801 807 815 817 821 822 822 782 784 756 751 757 763 767 771 773 774 774 775 771 766 763 760 756 753 748 744 739 735 729 723 719 718 718 718 718 721 724 728 732 736 741 745 750 753 759 765 770
797 804 824 819 825 803 815 818 773 754 754 753 753 762 765 770 773 774 774 775 772 766 763 760 756 754 751 747 742 737 733 728 725 723 723 723 724 727 729 732 735 739 743 748 751 752 755 765 771
802 799 809 806 807 799 813 799 759 753 752 755 752 759 767 771 773 773 774 775 773 768 765 762 758 756 753 749 745 742 737 734 731 729 727 727 729 732 733 736 739 742 744 748 751 749 756 764 771
798 802 798 815 854 828 790 774 749 751 750 753 759 764 767 768 771 772 772 774 774 771 766 763 761 758 756 753 749 746 742 739 737 733 732 732 731 734 738 739 741 744 747 751 751 757 765 766 773
792 796 805 824 818 808 782 777 758 740 750 753 759 763 765 766 767 769 771 773 775 773 768 765 764 761 759 756 753 750 747 745 744 741 737 737 738 740 742 744 746 749 752 753 757 763 770 770 778
798 798 798 800 802 789 793 757 743 737 741 748 753 757 760 763 765 765 767 770 774 774 769 767 766 764 762 759 757 754 753 751 748 747 748 747 748 748 748 748 751 754 758 761 764 769 772 773 778
786 787 790 787 793 807 791 769 733 736 736 744 746 751 756 759 762 764 765 768 772 774 770 768 768 766 766 763 761 759 757 755 754 753 752 754 754 754 755 756 758 763 767 772 772 773 778 780 786
Wind_Speed
4 1 2 6 3 4 3 3 2 1 1 3 3 2 7 3 2 2 6 10 13 11 13 16 14 13 13 12 11 12 12 13 13 14 14 14 13 12 12 10 10 12 12 10 10 11 12 12 7
2 4 5 3 4 2 4 3 1 1 1 7 5 2 5 2 2 2 2 11 13 11 11 13 14 13 13 13 10 12 14 14 15 15 15 15 16 16 14 13 13 11 11 11 10 11 11 12 9
2 4 4 4 3 4 4 3 3 1 4 2 4 6 2 2 1 1 7 12 11 8 9 12 14 14 13 13 12 11 11 16 17 18 18 18 18 18 17 16 16 15 13 11 11 13 12 11 10
1 6 4 4 4 4 4 3 2 1 1 7 3 5 2 1 1 3 8 9 7 7 8 11 13 14 15 14 15 11 12 11 16 19 19 20 20 20 21 20 20 20 16 14 14 14 11 12 12
4 3 3 2 4 3 2 1 1 1 2 3 3 4 4 1 2 5 6 6 8 7 10 12 13 15 16 17 16 15 15 13 13 14 19 23 23 22 23 23 23 23 20 17 18 15 14 13 14
3 2 3 3 4 3 3 0 2 2 2 2 4 5 4 2 4 5 4 6 7 9 12 14 15 17 18 19 18 17 16 17 16 17 17 18 24 25 25 26 26 25 23 21 21 18 15 15 16
5 4 3 3 3 2 4 2 2 3 1 2 7 5 1 2 2 3 3 4 8 11 14 15 16 18 19 20 20 19 19 18 17 17 18 19 23 27 27 28 29 28 24 22 23 21 18 17 16
4 4 2 3 3 4 3 3 2 4 5 2 4 4 3 3 1 2 4 7 11 14 14 14 17 18 19 21 21 20 21 20 19 19 19 18 18 25 28 28 30 29 27 24 24 21 20 17 15
3 4 2 4 5 3 1 2 1 1 3 1 1 4 4 2 0 3 6 9 11 14 14 16 18 19 20 22 23 23 23 22 21 20 18 15 19 20 27 30 31 31 27 25 26 21 19 17 15
4 3 5 1 2 2 1 3 3 1 3 3 1 1 4 4 3 4 5 9 10 13 14 16 20 23 22 20 21 23 22 22 23 21 17 14 13 15 22 28 31 31 29 25 26 21 19 16 14
3 4 2 2 2 1 2 2 2 3 6 7 8 6 3 2 2 3 4 5 10 13 15 16 21 23 23 23 23 24 24 25 24 20 17 16 15 17 10 27 34 33 30 27 27 22 22 17 15
0 2 2 1 2 1 3 2 4 7 5 4 7 4 5 4 2 1 2 7 12 14 16 18 21 24 26 27 29 29 27 26 23 22 18 16 16 16 14 17 36 38 33 31 30 27 22 17 15
1 1 2 2 3 4 2 6 6 8 8 6 5 5 6 5 5 3 5 10 13 15 18 21 24 28 28 28 30 30 27 25 24 21 19 15 15 17 10 6 32 34 35 33 31 28 24 19 16
1 2 3 4 3 4 3 4 2 4 6 7 6 7 7 7 7 3 7 12 14 16 19 23 28 29 28 30 27 28 26 25 21 20 19 17 16 16 14 5 23 24 28 30 30 28 25 20 17
1 4 5 5 3 4 1 7 10 4 4 8 8 6 7 7 7 8 7 11 13 16 19 24 29 28 27 27 25 26 25 24 21 23 21 19 17 17 17 10 23 29 33 32 31 27 23 19 17
1 2 3 2 6 1 2 9 4 5 8 9 8 6 7 6 8 7 5 7 11 16 19 24 27 27 28 27 27 25 24 24 24 21 18 17 16 17 16 19 9 34 33 34 33 29 25 19 19
3 4 4 6 7 2 4 8 3 5 7 9 8 8 7 7 6 6 3 7 11 14 18 25 27 28 29 27 27 26 25 24 23 22 18 15 15 15 17 16 12 36 34 35 31 29 27 20 21
4 4 5 5 2 4 6 18 16 7 10 12 9 8 7 7 7 6 3 6 10 13 19 25 27 30 28 27 26 27 25 23 20 20 16 15 14 14 15 16 12 29 33 30 25 28 27 23 21
2 3 4 4 0 3 7 16 20 10 9 13 10 8 8 8 6 5 2 7 12 14 21 26 28 29 27 27 24 22 21 23 19 14 13 10 11 13 13 16 8 34 30 25 26 21 30 23 24
3 1 4 4 2 1 6 20 19 5 6 11 11 9 8 5 6 4 2 7 10 15 21 26 28 27 26 25 27 19 24 24 21 13 9 9 8 11 12 17 18 34 33 23 19 24 22 19 26
2 4 3 3 5 1 8 9 5 2 3 2 4 5 6 8 8 4 2 6 10 16 22 26 26 25 24 25 26 25 21 18 10 11 3 5 6 7 13 12 30 33 28 33 33 32 28 22 25
3 3 3 2 5 3 4 5 6 4 7 2 4 6 7 7 5 3 0 5 9 15 20 24 24 22 23 24 24 22 15 16 13 13 6 2 5 7 11 19 33 29 21 24 30 35 29 25 25
3 3 2 2 2 3 4 3 8 4 4 3 5 6 7 7 6 5 1 4 7 13 19 22 21 21 22 24 22 21 21 21 18 10 6 6 8 8 13 25 25 24 25 26 28 30 29 24 21
6 4 5 4 2 2 2 4 6 3 3 1 2 7 8 7 6 5 1 3 6 11 17 21 20 21 22 22 23 22 20 22 16 16 15 14 7 11 14 15 21 24 23 25 26 28 28 26 23
2 4 2 4 2 4 3 2 11 5 5 4 4 8 8 7 6 4 2 2 5 11 16 20 20 22 22 21 21 20 16 19 18 19 17 16 17 16 17 20 20 17 17 19 22 24 29 25 23
5 5 4 5 2 4 3 6 6 5 3 6 2 5 7 7 5 5 4 1 3 7 13 17 19 21 21 19 18 18 17 20 19 18 21 21 22 17 17 15 16 15 14 17 20 28 26 26 27
4 4 1 6 2 3 3 7 8 4 2 1 4 6 8 8 7 6 5 2 1 4 10 13 17 19 18 17 17 18 17 20 20 18 20 23 23 23 19 19 21 20 18 22 24 36 34 33 28
3 4 3 2 2 4 5 5 6 3 7 6 6 9 8 7 8 6 6 5 3 1 7 9 14 18 18 17 16 15 17 19 19 22 23 23 22 22 24 26 27 28 31 34 36 36 35 35 30
3 3 1 2 3 4 1 6 6 6 6 10 9 9 9 9 8 7 7 8 5 3 5 8 11 17 19 21 20 19 19 20 22 23 23 24 25 27 28 33 37 37 35 37 39 36 34 37 33
3 6 6 4 5 3 1 7 3 5 4 6 8 9 8 7 8 7 10 11 9 7 6 7 11 15 16 20 24 26 25 26 27 27 26 25 27 29 32 34 35 36 35 34 34 35 33 33 31
Wind_Direction
324 299 63 47 47 58 262 246 295 102 72 326 333 55 120 58 89 207 169 358 352 351 357 0 351 338 330 330 285 277 273 259 250 241 236 229 224 215 197 197 190 176 173 179 173 168 165 176 156
6 99 63 78 87 58 269 278 214 272 60 130 66 69 42 83 40 77 27 345 350 358 358 360 358 343 331 328 323 278 270 270 261 254 241 234 229 216 203 199 194 191 187 187 189 171 176 154 190
104 67 87 99 112 186 221 227 208 309 355 131 92 51 73 107 60 46 348 347 355 9 359 353 350 343 337 329 321 301 275 266 261 254 248 235 232 225 210 203 198 190 190 191 193 186 182 193 184
83 24 34 98 213 242 214 197 247 200 330 33 115 72 47 35 138 357 360 14 28 30 358 343 337 332 327 327 342 311 278 260 262 256 252 243 233 226 221 211 200 191 191 193 185 177 203 186 186
53 52 77 99 263 272 233 236 344 54 347 31 343 164 150 7 42 19 29 28 23 359 343 335 329 322 320 318 321 327 329 305 268 257 254 249 241 228 220 214 206 197 190 190 190 187 195 187 190
45 106 65 228 236 242 273 245 107 64 308 7 68 128 195 121 14 19 40 27 15 356 342 330 323 319 316 311 314 320 317 318 304 275 252 256 253 237 227 217 209 202 191 187 187 182 189 186 196
114 87 210 219 239 242 217 107 151 185 244 241 157 148 180 268 14 78 64 25 7 348 335 333 324 322 318 314 311 307 304 303 308 308 296 271 239 240 233 223 215 205 194 191 185 185 183 193 202
102 88 203 260 201 261 176 114 142 172 234 139 148 191 220 217 81 31 15 9 1 2 2 348 336 330 327 325 321 313 305 302 304 309 313 294 274 233 234 228 219 208 196 193 186 188 186 197 197
113 62 256 260 146 254 119 152 252 302 149 220 49 131 165 142 133 357 6 6 8 5 360 360 353 342 327 321 323 320 309 306 302 302 306 310 283 247 228 224 216 209 200 194 192 193 191 197 199
85 123 228 217 184 237 201 192 204 217 205 231 123 184 134 131 69 42 32 6 353 344 349 351 351 350 344 328 315 318 313 310 307 308 298 298 288 272 240 229 216 204 198 193 192 192 186 195 200
126 202 226 240 218 205 220 259 227 192 248 214 199 197 162 110 46 47 19 325 316 323 336 342 344 344 342 337 330 318 310 307 304 304 298 289 286 266 246 214 223 196 195 191 191 189 187 192 196
140 234 215 251 241 250 229 304 269 203 231 196 188 156 149 175 198 148 289 301 308 316 329 336 339 337 335 331 328 321 310 309 304 301 299 288 278 273 272 247 217 193 190 191 190 187 189 190 192
160 249 237 251 256 252 273 250 245 251 237 186 178 176 176 197 216 230 276 297 304 313 327 332 334 335 335 330 322 321 315 309 302 298 291 289 275 271 265 261 194 186 187 193 190 188 186 186 184
319 276 287 254 255 260 252 266 36 276 176 197 191 199 201 209 221 237 285 295 306 315 324 330 332 336 333 330 322 318 312 308 299 295 291 291 274 260 242 241 174 190 194 194 191 190 185 183 182
61 320 305 242 221 249 75 274 234 212 159 202 216 215 214 227 234 240 277 298 312 325 330 336 335 333 332 332 317 307 302 297 283 283 285 283 272 258 253 226 223 204 204 197 197 192 186 179 176
352 44 320 195 174 233 105 273 253 175 164 215 227 228 225 239 237 248 269 310 327 332 340 337 338 335 335 328 319 309 304 297 290 281 280 273 272 253 261 239 258 203 198 198 198 187 180 171 172
12 245 228 307 201 141 185 273 244 162 192 227 228 231 226 240 240 217 267 316 330 335 342 340 342 340 338 327 325 320 312 298 290 283 271 266 264 262 257 258 267 185 185 180 188 183 181 167 166
209 229 249 251 220 221 248 259 264 229 206 228 227 227 227 225 226 202 263 320 332 341 346 344 345 349 339 333 330 326 322 315 292 275 266 268 250 251 250 245 250 159 171 177 172 170 171 173 150
154 221 254 271 170 260 244 277 276 253 226 231 223 218 219 221 198 187 276 333 338 348 350 348 349 351 342 337 331 326 311 303 297 280 269 262 245 240 237 223 233 179 167 158 174 167 159 160 153
228 220 270 280 299 254 321 288 286 260 241 234 218 210 205 175 185 196 305 344 343 348 352 347 350 345 344 338 331 318 312 305 297 306 273 243 245 227 227 205 166 146 141 132 183 186 161 147 162
227 194 228 244 317 240 313 292 334 292 296 288 200 177 157 184 190 188 308 339 342 358 354 346 349 347 348 347 345 338 347 331 312 341 307 239 215 224 208 193 167 160 160 167 185 171 163 159 171
248 185 150 55 28 273 8 279 305 300 305 274 168 152 160 161 161 156 271 333 349 358 352 351 355 350 356 357 353 342 340 333 329 321 321 211 210 187 174 157 164 167 169 169 171 171 167 165 175
228 124 93 82 72 337 355 66 271 346 321 248 190 179 177 183 173 162 205 324 360 3 353 359 1 2 5 5 4 354 0 353 14 42 70 108 135 146 150 165 164 171 175 170 173 170 172 176 174
144 77 44 51 59 348 243 115 285 242 217 304 189 192 184 184 169 152 188 330 7 13 360 8 6 13 17 17 16 13 18 6 29 70 82 74 107 144 145 153 170 175 185 180 186 179 176 174 176
91 89 331 345 10 227 147 90 247 259 239 222 209 203 185 177 171 173 212 337 6 20 5 14 13 17 21 26 26 28 31 28 34 77 88 87 89 95 131 151 158 167 176 179 181 173 167 172 176
181 171 167 209 214 284 89 235 249 200 268 237 254 181 154 168 182 185 208 258 353 28 15 20 23 26 27 36 36 36 45 39 41 82 100 100 105 111 113 133 153 160 161 160 147 135 148 158 152
185 199 165 106 42 39 231 281 293 228 228 118 148 160 179 181 186 195 192 215 294 41 35 25 31 38 38 42 45 49 54 63 54 69 101 106 111 114 120 128 132 136 140 136 133 122 122 120 121
157 164 86 352 138 257 279 275 244 264 217 215 196 206 200 191 183 194 192 204 194 109 64 50 49 51 49 54 58 57 62 73 78 75 74 91 97 114 123 120 122 124 128 125 123 122 125 121 120
141 208 132 135 163 180 277 265 210 221 198 208 213 211 201 192 193 189 190 197 186 194 98 73 67 66 60 67 69 70 69 75 88 86 84 99 109 112 115 118 120 122 124 125 128 126 124 120 119
169 195 173 146 215 243 210 274 176 215 219 211 226 207 198 190 190 193 188 187 183 209 143 106 93 85 81 81 81 82 85 87 89 92 93 95 96 107 117 120 119 119 119 122 119 118 120 122 124